NOAA 16 DEB, 41223

Orbit data source: Space-Track

NOAA 16 DEB, 41223 is space debris in SSO originally from a launch on Thu, 21 Sep 2000 UTC launched from the Air Force Western Test Range (AFWTR). Debris objects in space refer to the collection of defunct objects orbiting the Earth. Examples of debris include non-operational satellites, rocket bodies, and fragments generated from explosions, collisions, or faulty payload assembly.

Loading next visibility...
Identifier
41223, 2000-055EC
Orbit
SSO
Country
Flag of USUS
Related business
Manufacturer
Unknown
Mission
Spacecraft
Bus & Motor
Unknown
Mass
Unknown
Launch date (UTC)
2000-09-21 (25 years ago)
Launch vehicle
Unknown
Launch site
Air Force Western Test Range (AFWTR)
Object type
Payload
Rocket body
Debris
Shape & HBR
Unknown shape, 0.1 m
Radar Cross Section
Small (<0.1 m²)

Expand to show TLE details & history
Last TLE update: 2 days ago

TLE from 2 days ago
0 NOAA 16 DEB
1 41223U 00055EC  25339.49686524  .00003920  00000-0  20911-2 0  9997
2 41223  98.6514 338.1461 0033002  81.9372 278.5544 14.13559114512637
Epoch: 2025-12-05T11:55Z
TLE epoch observation values (Epoch: 2025-12-05T11:55:29.156Z)
Latitude
0.00002°
Longitude
84.7365°
Altitude
846.655 km
Speed
7.431 km/s
True Right ascension
22h 32m 35s
True Declination
0° 00' 00"
Sunlit
Object was in daylight at epoch
Visualization orbit readout
Latitude
Unknown
Longitude
Unknown
Altitude
Unknown
Speed
Unknown
Apparent Right ascension
Unknown
Apparent Declination
Unknown
Sunlit
N/A
Visualization observer readout
Local Sidereal Time
00:15:44
Azimuth
Unknown
Elevation
Unknown
Doppler factor
Unknown
Orbital elements
Apogee altitude
868.218 km
Perigee altitude
820.547 km
Semi-major axis
7,222.519 km
Eccentricity
0.0033
Inclination
98.6514°
RAAN
338.1461°
Arg. of periapsis
81.9372°
True anomaly
278.18021°
Mean anomaly
278.5544°
Eccentric anomaly
278.36733°
Mean motion
3.53598 °/min
Orbital period
101.81 mins
BSTAR
0.0020911
Loading maneuver chart data...
Computing Atmospheric mass density...
Loading historical data...
Loading historical data...
Loading historical data...
Loading historical data...
Loading historical data...
Loading historical data...
Loading historical data...

Documentation

Showing up to 5 results
|